Temp
-6 -6 -6 -7 -7 -6 -7 -6 -7 -7 -6 -6 -6 -5 -6 -5 -4 -4 -2 -4 -5 -5 -5 -5 -6 -6 -5 -6 -6 -6 -6 -5 -5 -6 -6 -6 -6 -6 -6 -6 -6 -6 -6 -6 -6 -6 -6 -6 -6
-6 -6 -6 -7 -7 -7 -6 -6 -7 -6 -6 -6 -6 -5 -6 -5 -4 -5 -5 -4 -5 -4 -5 -5 -5 -6 -5 -6 -6 -6 -6 -6 -5 -6 -6 -6 -6 -6 -6 -6 -6 -6 -6 -6 -6 -6 -6 -6 -6
-6 -6 -6 -6 -7 -7 -7 -6 -5 -6 -6 -5 -5 -4 -5 -6 -4 -5 -5 -5 -5 -5 -5 -5 -5 -5 -5 -6 -5 -6 -6 -6 -5 -6 -6 -6 -6 -6 -6 -6 -6 -6 -6 -6 -6 -6 -6 -6 -6
-5 -6 -5 -6 -7 -6 -6 -6 -6 -6 -6 -6 -6 -5 -5 -4 -5 -5 -5 -5 -5 -5 -5 -5 -5 -5 -5 -6 -6 -6 -6 -6 -6 -6 -6 -6 -6 -6 -6 -6 -6 -6 -7 -7 -7 -7 -7 -7 -7
-5 -5 -6 -6 -6 -7 -6 -6 -5 -5 -6 -5 -5 -5 -5 -4 -5 -5 -5 -4 -4 -5 -5 -5 -5 -5 -6 -6 -6 -6 -6 -6 -6 -6 -6 -6 -6 -6 -6 -6 -6 -6 -7 -7 -7 -7 -7 -7 -7
-4 -5 -5 -6 -6 -6 -6 -5 -5 -5 -5 -5 -5 -5 -5 -4 -4 -5 -5 -5 -5 -5 -5 -5 -5 -5 -5 -5 -5 -6 -6 -6 -6 -6 -6 -6 -6 -6 -6 -6 -6 -7 -7 -7 -7 -7 -7 -7 -7
-5 -4 -4 -6 -7 -6 -6 -5 -5 -5 -5 -5 -5 -5 -5 -4 -4 -5 -5 -5 -5 -5 -5 -5 -5 -5 -5 -5 -5 -6 -5 -6 -6 -6 -6 -6 -6 -6 -6 -6 -7 -7 -7 -7 -7 -7 -7 -6 -6
-5 -4 -5 -5 -6 -4 -5 -5 -5 -5 -4 -4 -4 -4 -5 -3 -4 -4 -4 -4 -4 -5 -5 -5 -5 -5 -5 -5 -5 -6 -6 -6 -6 -6 -6 -6 -6 -6 -7 -7 -7 -7 -7 -7 -7 -7 -7 -6 -6
-4 -4 -4 -5 -6 -5 -5 -5 -5 -5 -5 -4 -4 -4 -5 -4 -4 -4 -4 -5 -5 -5 -5 -5 -6 -5 -5 -6 -6 -7 -6 -6 -6 -6 -6 -6 -7 -7 -6 -7 -7 -7 -8 -7 -7 -7 -7 -7 -6
-5 -4 -4 -5 -5 -5 -5 -5 -5 -5 -5 -4 -4 -4 -5 -5 -4 -4 -4 -5 -5 -5 -5 -5 -5 -5 -5 -5 -6 -7 -6 -5 -6 -6 -6 -6 -6 -7 -6 -7 -7 -8 -7 -7 -7 -7 -7 -7 -7
-5 -4 -5 -5 -5 -4 -5 -4 -4 -3 -3 -4 -4 -4 -4 -5 -5 -4 -4 -5 -5 -5 -5 -5 -5 -5 -5 -5 -5 -5 -5 -5 -6 -6 -6 -6 -6 -7 -7 -7 -7 -7 -7 -7 -7 -7 -7 -7 -7
-4 -4 -5 -5 -5 -3 -4 -4 -4 -4 -4 -4 -4 -4 -4 -4 -5 -5 -5 -4 -4 -5 -5 -5 -5 -5 -5 -5 -5 -5 -5 -6 -5 -6 -5 -6 -6 -7 -7 -7 -7 -7 -7 -7 -7 -7 -7 -8 -8
-5 -5 -5 -5 -6 -4 -4 -4 -4 -4 -4 -4 -3 -4 -4 -4 -4 -5 -5 -5 -4 -5 -5 -5 -5 -5 -5 -5 -5 -5 -5 -6 -5 -5 -6 -6 -6 -7 -7 -7 -7 -7 -7 -7 -7 -7 -7 -6 -7
-5 -4 -5 -5 -5 -5 -5 -5 -5 -4 -3 -3 -4 -3 -4 -4 -4 -4 -5 -5 -5 -4 -5 -5 -5 -5 -5 -5 -6 -5 -5 -5 -5 -5 -6 -6 -6 -7 -7 -7 -7 -7 -7 -7 -6 -7 -8 -7 -7
-4 -5 -5 -5 -5 -5 -5 -5 -5 -4 -3 -4 -4 -4 -3 -4 -4 -4 -5 -6 -5 -5 -5 -4 -5 -5 -5 -5 -5 -5 -5 -5 -5 -5 -5 -6 -6 -6 -6 -6 -7 -7 -7 -7 -7 -7 -7 -8 -7
-5 -5 -4 -5 -5 -5 -5 -5 -5 -5 -4 -4 -4 -4 -4 -4 -4 -4 -4 -5 -5 -5 -5 -5 -5 -5 -5 -5 -5 -5 -5 -5 -5 -5 -5 -6 -6 -6 -7 -6 -7 -7 -7 -7 -7 -7 -7 -8 -8
-5 -5 -4 -4 -4 -5 -5 -5 -5 -4 -4 -4 -4 -4 -4 -4 -3 -4 -4 -5 -5 -5 -5 -5 -5 -4 -4 -5 -5 -5 -5 -4 -5 -5 -5 -6 -5 -6 -6 -6 -6 -7 -7 -8 -7 -7 -7 -7 -8
-4 -5 -4 -5 -5 -4 -5 -5 -5 -4 -4 -4 -5 -4 -4 -4 -4 -4 -4 -4 -5 -5 -5 -5 -5 -4 -4 -5 -5 -5 -5 -5 -5 -5 -5 -5 -5 -5 -5 -6 -6 -6 -7 -7 -7 -7 -7 -7 -7
-6 -5 -5 -4 -4 -4 -3 -5 -5 -5 -4 -4 -4 -4 -4 -4 -4 -4 -4 -4 -5 -5 -5 -5 -5 -4 -5 -5 -4 -5 -5 -5 -4 -5 -5 -5 -5 -5 -5 -5 -5 -6 -6 -6 -6 -6 -7 -7 -7
-8 -6 -4 -4 -5 -3 -3 -3 -3 -4 -5 -5 -4 -5 -5 -4 -5 -5 -5 -5 -5 -5 -6 -5 -5 -5 -5 -5 -5 -5 -5 -5 -6 -5 -5 -5 -5 -5 -5 -5 -5 -5 -5 -6 -6 -6 -6 -7 -7
-6 -6 -5 -3 -4 -5 -5 -3 -4 -4 -5 -5 -5 -5 -6 -5 -4 -4 -5 -5 -5 -5 -5 -6 -5 -5 -5 -5 -5 -5 -5 -5 -6 -5 -4 -5 -5 -5 -5 -5 -6 -6 -5 -5 -5 -6 -6 -6 -7
-4 -5 -5 -6 -5 -6 -5 -6 -4 -4 -4 -4 -4 -5 -5 -5 -5 -5 -4 -4 -5 -4 -5 -6 -6 -5 -5 -5 -6 -5 -5 -5 -5 -5 -5 -4 -5 -5 -5 -5 -5 -6 -6 -6 -6 -6 -6 -6 -6
-4 -6 -6 -6 -6 -6 -5 -5 -6 -5 -4 -3 -4 -5 -4 -5 -6 -6 -6 -5 -5 -5 -5 -4 -5 -6 -6 -6 -6 -5 -5 -5 -5 -5 -5 -5 -5 -5 -5 -5 -5 -5 -6 -6 -6 -6 -6 -6 -6
-4 -4 -5 -5 -5 -6 -6 -5 -7 -6 -6 -4 -4 -4 -4 -5 -5 -5 -6 -7 -7 -6 -6 -5 -4 -4 -5 -5 -5 -6 -6 -6 -6 -6 -5 -4 -5 -5 -5 -5 -5 -5 -5 -6 -6 -6 -6 -6 -6
-5 -5 -5 -5 -6 -7 -6 -5 -6 -6 -5 -7 -6 -5 -5 -5 -7 -7 -7 -7 -8 -7 -7 -5 -6 -5 -4 -5 -5 -5 -5 -6 -6 -6 -6 -5 -5 -5 -5 -5 -5 -4 -5 -5 -5 -5 -5 -6 -6
-5 -5 -6 -5 -6 -7 -7 -5 -6 -5 -6 -6 -6 -6 -7 -7 -7 -7 -8 -7 -7 -6 -7 -6 -6 -6 -6 -5 -5 -5 -5 -5 -5 -6 -6 -6 -5 -5 -5 -5 -5 -5 -5 -5 -5 -6 -6 -6 -6
-7 -7 -7 -7 -7 -7 -8 -7 -8 -7 -7 -7 -7 -7 -7 -7 -8 -8 -8 -7 -7 -5 -5 -7 -7 -7 -7 -7 -5 -6 -6 -5 -5 -5 -5 -5 -5 -5 -5 -5 -5 -5 -5 -5 -5 -5 -5 -6 -6
-7 -7 -7 -7 -8 -8 -8 -9 -9 -8 -8 -8 -8 -8 -8 -8 -7 -7 -8 -8 -7 -6 -5 -6 -6 -6 -7 -7 -6 -6 -7 -6 -6 -6 -5 -5 -5 -5 -5 -5 -5 -5 -5 -5 -5 -5 -5 -5 -5
-8 -8 -8 -8 -8 -9 -9 -10 -9 -9 -9 -9 -9 -9 -9 -8 -9 -7 -7 -7 -7 -7 -7 -6 -5 -5 -6 -7 -6 -6 -7 -7 -7 -6 -6 -6 -5 -6 -6 -5 -5 -5 -5 -5 -4 -5 -5 -5 -5
-8 -8 -8 -8 -8 -9 -9 -10 -10 -10 -10 -9 -9 -8 -9 -9 -9 -9 -9 -9 -8 -8 -8 -9 -9 -8 -6 -6 -7 -7 -8 -8 -7 -7 -6 -7 -6 -5 -5 -6 -6 -5 -5 -5 -5 -5 -5 -5 -5
Height
5892 5889 5887 5886 5887 5886 5887 5889 5888 5888 5891 5894 5895 5897 5898 5901 5900 5900 5900 5903 5907 5907 5908 5910 5912 5914 5915 5917 5919 5920 5920 5920 5920 5920 5920 5920 5920 5921 5922 5921 5921 5920 5919 5919 5918 5917 5916 5915 5914
5896 5892 5893 5890 5892 5891 5890 5889 5894 5895 5895 5896 5897 5897 5900 5903 5902 5903 5907 5907 5910 5910 5911 5913 5914 5915 5918 5920 5920 5921 5922 5923 5922 5922 5921 5922 5923 5924 5924 5923 5922 5922 5922 5921 5919 5919 5917 5916 5915
5896 5895 5899 5896 5893 5894 5894 5894 5894 5899 5898 5898 5900 5901 5903 5905 5904 5907 5908 5910 5913 5913 5914 5916 5917 5919 5920 5921 5922 5923 5924 5924 5924 5924 5924 5925 5925 5926 5925 5925 5925 5924 5924 5924 5922 5920 5919 5918 5918
5896 5899 5902 5897 5894 5895 5897 5897 5899 5901 5900 5901 5902 5903 5906 5906 5906 5910 5911 5913 5915 5916 5917 5917 5918 5920 5922 5924 5925 5924 5925 5926 5927 5927 5927 5928 5928 5928 5928 5928 5928 5927 5927 5926 5925 5924 5923 5922 5921
5901 5903 5903 5900 5898 5898 5898 5899 5901 5903 5904 5904 5906 5908 5908 5909 5908 5911 5914 5915 5916 5917 5919 5919 5920 5921 5924 5926 5927 5927 5927 5928 5930 5930 5930 5931 5931 5931 5931 5930 5930 5929 5929 5929 5928 5927 5926 5925 5926
5908 5905 5903 5903 5901 5902 5901 5900 5902 5905 5907 5909 5906 5909 5911 5910 5911 5914 5915 5916 5917 5919 5920 5920 5921 5923 5926 5928 5928 5928 5928 5930 5933 5933 5934 5933 5933 5933 5933 5933 5933 5933 5933 5932 5931 5930 5930 5930 5929
5910 5909 5906 5905 5905 5906 5905 5906 5907 5908 5911 5913 5911 5911 5917 5914 5914 5916 5918 5919 5919 5920 5921 5922 5923 5924 5925 5926 5927 5930 5932 5933 5935 5935 5936 5936 5935 5936 5936 5936 5935 5935 5935 5936 5935 5934 5934 5933 5932
5913 5911 5908 5905 5906 5906 5908 5908 5912 5912 5913 5915 5915 5915 5918 5919 5919 5919 5920 5921 5921 5921 5922 5923 5924 5924 5925 5926 5929 5931 5933 5934 5936 5937 5938 5937 5938 5939 5939 5938 5939 5938 5939 5939 5938 5937 5937 5936 5936
5914 5916 5911 5907 5908 5906 5906 5910 5915 5915 5915 5918 5919 5918 5920 5922 5923 5923 5923 5924 5923 5924 5925 5925 5925 5925 5925 5928 5931 5933 5934 5936 5938 5940 5940 5941 5940 5942 5941 5942 5943 5942 5943 5942 5941 5940 5940 5939 5939
5916 5915 5912 5911 5912 5911 5910 5911 5914 5917 5919 5919 5920 5922 5921 5923 5922 5923 5923 5924 5925 5926 5927 5927 5928 5928 5926 5929 5932 5934 5936 5939 5941 5942 5943 5942 5943 5944 5944 5944 5945 5945 5945 5945 5943 5943 5943 5942 5943
5915 5916 5913 5914 5915 5915 5916 5917 5916 5917 5919 5919 5920 5922 5925 5924 5924 5924 5925 5927 5928 5928 5929 5932 5931 5933 5933 5933 5936 5939 5941 5942 5944 5945 5944 5945 5946 5947 5948 5948 5948 5948 5948 5947 5946 5946 5945 5945 5946
5914 5917 5917 5916 5918 5917 5918 5918 5915 5915 5916 5918 5921 5922 5923 5926 5926 5926 5927 5928 5930 5932 5933 5934 5935 5936 5938 5940 5941 5943 5944 5946 5946 5947 5947 5948 5948 5950 5950 5950 5950 5951 5951 5951 5949 5949 5948 5948 5948
5917 5919 5920 5921 5921 5921 5920 5921 5922 5922 5921 5921 5922 5923 5925 5926 5929 5930 5930 5933 5931 5934 5936 5938 5938 5938 5939 5941 5942 5944 5947 5948 5948 5949 5950 5950 5950 5952 5953 5952 5952 5953 5953 5953 5952 5952 5952 5950 5950
5923 5922 5923 5923 5924 5924 5924 5924 5924 5925 5924 5924 5923 5925 5926 5927 5929 5932 5933 5932 5933 5935 5938 5940 5940 5941 5941 5942 5944 5946 5948 5949 5951 5951 5952 5952 5952 5954 5954 5953 5955 5955 5955 5955 5956 5954 5955 5954 5954
5926 5925 5926 5925 5926 5927 5928 5926 5925 5925 5925 5925 5926 5926 5926 5929 5930 5931 5934 5934 5935 5937 5939 5940 5941 5943 5944 5944 5945 5947 5949 5950 5953 5953 5954 5954 5955 5954 5954 5955 5958 5957 5957 5958 5957 5957 5958 5959 5959
5925 5927 5928 5928 5926 5928 5929 5929 5927 5927 5927 5928 5928 5929 5931 5932 5931 5932 5934 5936 5936 5937 5939 5941 5942 5944 5945 5945 5947 5948 5950 5952 5954 5955 5956 5955 5956 5957 5957 5957 5958 5959 5959 5960 5959 5959 5960 5961 5961
5924 5928 5928 5929 5927 5929 5930 5930 5930 5930 5931 5930 5931 5932 5932 5932 5932 5932 5933 5934 5935 5938 5938 5940 5942 5945 5947 5948 5948 5950 5951 5953 5954 5955 5956 5957 5957 5958 5958 5959 5960 5960 5961 5961 5960 5961 5961 5961 5962
5922 5926 5928 5928 5929 5929 5931 5931 5932 5932 5932 5932 5933 5934 5933 5932 5933 5934 5935 5936 5937 5937 5938 5940 5941 5943 5946 5949 5950 5950 5951 5952 5954 5956 5956 5957 5958 5959 5960 5960 5961 5961 5962 5961 5961 5962 5962 5963 5963
5920 5923 5926 5929 5928 5929 5930 5930 5932 5932 5933 5932 5933 5934 5933 5933 5933 5933 5935 5936 5936 5937 5938 5939 5942 5942 5943 5945 5949 5951 5950 5951 5953 5954 5956 5957 5958 5958 5959 5961 5961 5962 5962 5963 5963 5963 5964 5964 5964
5920 5918 5923 5924 5928 5928 5928 5929 5929 5930 5933 5932 5934 5933 5933 5934 5934 5934 5934 5935 5938 5938 5939 5939 5940 5942 5944 5944 5946 5949 5951 5951 5951 5953 5955 5957 5958 5958 5959 5960 5961 5962 5962 5963 5963 5964 5964 5965 5965
5918 5918 5917 5922 5925 5924 5924 5927 5927 5928 5929 5930 5932 5932 5931 5932 5933 5934 5933 5933 5935 5937 5937 5938 5939 5940 5942 5944 5944 5945 5948 5950 5950 5950 5952 5955 5956 5957 5957 5959 5960 5961 5962 5963 5963 5964 5964 5965 5966
5917 5920 5919 5917 5922 5922 5924 5925 5924 5925 5924 5926 5928 5929 5930 5930 5930 5932 5933 5933 5932 5934 5936 5937 5938 5940 5941 5942 5944 5944 5945 5946 5948 5948 5950 5952 5954 5956 5956 5958 5959 5960 5960 5962 5962 5963 5964 5964 5964
5915 5916 5917 5917 5915 5920 5919 5921 5921 5921 5921 5919 5923 5924 5925 5929 5927 5929 5931 5936 5934 5936 5937 5936 5935 5936 5936 5938 5941 5942 5943 5943 5945 5945 5946 5949 5951 5953 5953 5955 5956 5958 5958 5959 5960 5960 5961 5962 5962
5909 5911 5913 5914 5916 5917 5915 5915 5915 5917 5917 5915 5917 5919 5919 5925 5923 5921 5925 5932 5935 5936 5938 5938 5936 5934 5933 5935 5936 5938 5940 5941 5941 5943 5944 5945 5947 5949 5951 5952 5953 5953 5954 5955 5956 5956 5957 5958 5959
5905 5908 5909 5911 5912 5912 5910 5910 5913 5912 5912 5912 5912 5913 5917 5920 5917 5920 5923 5924 5931 5936 5934 5934 5935 5936 5933 5931 5933 5934 5935 5936 5937 5939 5941 5943 5945 5946 5947 5949 5950 5951 5951 5952 5952 5953 5953 5954 5954
5900 5903 5904 5906 5909 5907 5905 5906 5907 5909 5910 5912 5911 5912 5911 5913 5921 5917 5924 5924 5927 5934 5932 5931 5931 5929 5931 5930 5929 5931 5930 5932 5932 5933 5936 5938 5942 5944 5944 5945 5947 5948 5949 5949 5949 5950 5950 5950 5949
5896 5897 5900 5902 5904 5901 5902 5902 5901 5901 5902 5904 5906 5905 5907 5909 5909 5916 5919 5919 5920 5926 5927 5926 5923 5924 5925 5927 5925 5927 5929 5929 5928 5928 5928 5932 5934 5937 5940 5942 5942 5943 5944 5945 5946 5946 5946 5946 5945
5892 5894 5897 5899 5900 5895 5897 5897 5898 5898 5898 5899 5901 5902 5902 5902 5903 5905 5910 5914 5914 5917 5919 5921 5920 5919 5918 5919 5919 5921 5921 5922 5922 5922 5924 5924 5926 5928 5932 5936 5938 5939 5939 5939 5940 5941 5941 5941 5940
5889 5890 5893 5895 5895 5890 5889 5892 5893 5893 5894 5895 5895 5894 5893 5891 5892 5894 5896 5898 5900 5906 5910 5911 5911 5910 5910 5911 5912 5912 5913 5915 5916 5917 5918 5919 5920 5921 5922 5925 5929 5931 5932 5932 5933 5934 5934 5935 5934
5882 5884 5886 5888 5890 5885 5883 5885 5886 5888 5889 5891 5892 5891 5891 5891 5892 5892 5891 5891 5891 5891 5891 5893 5896 5901 5901 5902 5904 5904 5904 5904 5907 5908 5909 5910 5913 5914 5915 5916 5918 5921 5923 5924 5925 5926 5926 5927 5927
Wind_Speed
22 22 14 17 18 21 21 19 21 23 24 22 19 21 20 15 17 26 23 20 19 21 23 22 19 17 16 14 15 15 15 16 16 16 21 22 24 22 19 17 15 14 15 16 19 19 19 19 19
23 27 22 15 20 17 23 23 24 22 20 18 17 21 18 17 19 21 23 22 20 21 20 18 17 16 14 13 15 12 13 16 17 18 21 21 21 18 16 13 14 16 17 18 19 21 21 21 21
25 25 15 19 19 18 18 19 16 18 19 18 15 16 17 14 19 20 23 19 15 17 17 16 14 12 12 12 12 12 14 16 16 19 20 19 17 15 13 12 14 17 19 20 22 24 24 24 25
19 16 11 20 16 17 24 22 19 22 19 17 21 19 16 18 19 18 17 16 15 15 13 12 12 11 10 10 12 12 14 17 17 18 19 17 14 13 12 13 15 17 20 23 23 25 25 26 27
18 15 17 20 19 16 21 23 26 24 21 18 20 18 18 16 18 16 16 15 14 15 12 10 9 9 10 7 13 10 15 22 20 16 17 15 12 12 13 14 16 19 21 23 24 25 26 26 27
18 16 19 18 17 22 22 21 25 22 20 20 19 15 17 17 19 14 13 12 10 10 10 7 6 6 9 10 13 11 16 22 15 17 14 12 11 13 13 14 17 19 21 22 24 23 23 23 25
22 17 20 18 18 16 25 22 23 23 20 21 19 20 16 16 19 15 13 11 11 9 8 8 7 7 9 11 15 18 25 21 20 16 12 11 12 12 14 15 18 20 21 20 21 21 20 21 24
11 19 19 21 17 18 24 22 19 22 24 22 18 18 16 15 17 14 13 10 7 6 6 7 8 8 11 12 17 23 15 20 18 15 12 12 13 12 15 16 17 20 20 19 19 20 19 21 22
20 20 23 24 19 24 22 24 19 18 22 23 24 23 21 14 17 16 14 10 7 10 11 13 10 7 8 15 18 23 15 21 17 13 11 12 14 13 16 16 19 20 19 18 18 18 18 21 19
21 18 26 27 22 21 24 21 20 17 16 18 20 22 21 16 15 15 13 13 15 20 22 19 20 20 18 24 22 21 24 20 16 12 11 14 13 12 14 18 19 19 17 18 18 17 16 20 17
20 19 22 25 22 20 20 14 15 16 15 16 15 19 18 16 10 15 15 12 13 17 21 16 13 17 23 33 21 20 23 17 13 10 13 12 12 12 14 17 17 15 14 16 16 17 18 19 17
16 16 19 19 20 20 21 18 19 15 15 13 12 11 14 16 11 11 12 11 12 14 15 13 11 13 16 19 13 14 16 14 12 10 11 9 12 13 15 16 16 12 11 12 16 14 17 21 17
16 15 16 17 16 18 15 17 16 15 15 12 13 10 11 12 14 12 8 11 11 12 10 10 10 11 14 14 14 16 16 12 9 9 9 9 12 13 15 14 14 12 10 10 13 13 10 16 18
9 10 11 10 12 15 12 15 13 12 14 15 14 16 13 13 12 11 11 9 8 10 11 11 11 10 10 14 14 15 16 11 8 7 9 8 9 11 14 12 12 10 7 6 8 16 12 13 13
5 12 10 9 10 12 13 10 9 9 11 15 14 14 17 16 12 11 12 9 8 10 8 10 10 9 9 10 13 16 14 11 8 7 7 7 7 12 11 10 9 11 7 5 8 13 14 11 7
13 8 8 10 10 7 10 11 10 9 10 11 12 12 12 13 17 13 12 11 8 9 10 9 7 9 10 9 9 14 13 12 11 7 6 5 5 5 7 6 10 8 7 6 7 9 12 12 8
5 7 4 5 6 5 5 8 8 8 8 10 10 10 10 11 15 17 13 9 6 8 9 9 9 8 9 10 9 9 11 13 11 9 7 6 3 4 6 5 6 6 7 7 6 7 9 10 10
7 4 6 9 4 2 3 6 3 5 8 11 11 9 9 10 11 14 15 12 7 7 7 8 8 9 8 7 8 9 9 11 13 11 8 7 5 4 4 4 4 5 6 7 7 5 6 6 6
9 9 7 8 3 3 4 4 4 6 1 6 7 8 9 10 9 9 11 11 9 6 5 7 7 5 8 9 7 7 9 10 13 14 11 8 8 7 5 3 2 2 5 7 7 3 5 4 4
10 16 8 3 4 6 3 7 8 7 5 1 3 6 6 5 7 7 7 7 8 7 4 3 6 7 7 9 9 8 8 8 9 15 15 11 9 9 7 6 4 3 3 4 6 3 2 2 3
15 15 15 6 4 6 10 5 5 5 8 5 3 3 4 4 0 1 3 5 4 5 5 4 4 6 7 7 8 10 10 10 11 16 19 16 12 11 10 9 9 7 6 2 1 1 2 1 2
13 14 14 20 9 11 6 6 7 9 8 8 8 8 9 11 11 9 7 5 7 7 8 7 6 7 7 7 10 11 10 13 13 15 19 18 15 13 12 12 13 12 10 7 5 3 3 5 7
11 5 9 14 18 5 11 6 10 12 11 15 7 13 19 13 16 11 6 6 3 5 6 9 11 12 11 10 10 11 11 13 15 17 18 20 18 16 14 15 15 15 15 14 11 10 10 11 10
20 17 15 16 11 7 5 8 13 15 13 18 17 15 13 15 19 19 5 5 2 10 12 13 12 12 13 12 13 12 12 12 12 14 18 20 20 18 16 16 15 13 14 16 15 14 12 12 12
20 19 18 19 14 12 16 17 16 21 18 16 18 17 18 20 28 13 8 18 11 20 20 17 15 17 15 15 16 17 16 13 12 12 14 20 22 21 20 19 16 13 12 12 12 11 11 12 13
19 19 17 18 15 13 18 21 21 19 17 19 21 26 27 27 28 23 23 22 18 15 16 21 19 17 19 17 16 18 19 20 17 14 14 17 22 24 24 22 20 18 15 14 13 13 14 15 17
13 14 13 13 15 18 7 15 18 18 19 23 25 26 28 30 31 26 22 21 27 23 18 21 26 25 19 21 18 18 21 21 20 21 19 19 22 25 26 26 25 23 21 20 19 18 18 18 19
16 16 14 15 18 16 15 15 16 21 23 25 25 28 32 35 36 33 27 25 28 26 22 22 26 28 23 19 21 26 26 28 25 23 24 25 25 25 28 29 29 29 28 26 25 24 24 23 24
16 15 14 16 23 19 21 19 20 24 25 26 27 27 28 35 37 38 39 39 38 33 27 25 27 30 30 25 26 28 29 27 27 28 27 28 30 29 29 30 32 33 34 33 31 30 29 27 28
21 21 22 21 21 23 25 25 24 29 31 31 34 37 36 37 40 41 42 41 42 43 39 37 36 31 34 32 33 34 31 25 26 31 34 30 34 34 33 32 33 34 34 36 35 34 34 32 31
Wind_Direction
88 81 96 81 81 69 83 85 93 90 107 98 96 119 119 133 114 125 125 133 140 130 130 128 122 118 114 110 117 119 123 121 115 114 116 117 114 111 108 103 99 91 89 90 92 92 90 89 90
76 77 77 82 79 87 79 76 73 87 94 95 103 111 108 125 116 128 138 134 130 128 126 127 126 122 117 114 116 126 133 119 116 119 119 117 114 111 104 99 91 92 93 93 91 90 86 87 90
81 80 73 94 83 76 91 92 87 97 97 98 105 102 118 116 115 124 135 131 137 131 133 131 129 126 122 122 123 122 134 122 122 125 121 118 113 110 103 98 97 98 98 95 91 88 89 90 91
66 80 80 81 67 65 77 85 94 105 99 104 103 110 116 119 115 129 130 143 141 134 135 142 138 137 136 142 126 115 136 131 131 132 125 121 120 113 101 100 98 102 102 99 96 92 90 90 89
79 76 81 75 91 82 73 80 87 98 106 110 112 114 119 117 113 126 140 141 143 137 141 137 138 140 140 140 148 118 144 137 144 135 130 133 122 105 104 101 108 108 107 105 101 96 94 91 93
72 77 73 83 78 80 79 71 75 90 104 112 112 115 114 122 119 122 126 129 134 141 140 139 142 155 150 144 152 118 142 140 146 138 140 132 106 103 102 108 108 106 106 104 102 100 98 100 94
62 74 75 74 79 97 93 84 83 87 92 102 112 117 116 103 106 117 130 138 138 143 145 162 167 168 167 158 159 134 128 141 145 141 140 113 102 104 107 108 105 107 102 99 97 98 99 99 93
81 60 55 64 58 69 92 96 91 102 100 98 108 108 106 93 101 111 119 118 115 121 132 154 162 167 172 165 153 149 138 145 137 142 131 110 105 108 102 100 104 102 102 101 97 97 98 93 93
82 74 68 63 51 42 57 96 93 90 100 105 108 109 124 114 118 124 121 106 103 153 133 125 134 130 170 169 157 147 155 141 145 144 117 113 103 102 98 105 110 107 105 100 99 97 99 94 88
78 70 75 68 52 44 46 83 90 94 88 98 104 101 109 110 104 111 102 96 94 116 114 112 115 87 104 137 146 141 143 144 145 134 119 101 99 102 117 122 119 113 114 108 102 98 101 97 92
67 55 63 56 51 78 75 82 88 86 91 84 87 101 106 104 87 92 100 105 105 108 121 114 111 98 95 126 111 129 144 146 145 124 101 97 103 113 125 122 116 114 113 107 99 107 104 95 94
85 58 61 50 45 51 67 69 66 69 70 72 80 81 94 104 108 99 95 104 115 118 126 125 117 123 115 132 144 141 150 156 131 110 105 116 121 124 127 127 120 121 113 105 103 105 113 107 102
72 65 56 53 20 47 53 67 73 78 85 89 90 83 88 97 108 106 117 108 109 118 130 127 126 125 133 133 149 156 158 148 125 122 127 130 129 134 139 137 140 138 130 116 111 106 100 112 113
85 87 76 34 25 39 56 52 63 64 73 76 87 95 87 89 99 116 126 114 113 114 128 124 128 130 141 137 146 163 162 155 148 137 145 134 129 139 142 155 153 142 139 122 110 101 93 105 112
69 108 80 55 71 58 49 53 61 71 67 68 70 72 79 76 92 112 126 140 148 133 132 127 130 131 145 142 151 166 167 165 169 147 150 137 147 147 165 166 165 153 147 110 103 114 116 112 106
67 77 84 72 90 63 66 48 49 83 76 73 72 69 64 77 85 110 123 146 155 130 127 141 140 144 144 151 159 167 181 175 187 164 165 154 153 148 171 177 176 168 150 145 134 124 115 115 105
121 101 106 121 96 74 54 46 38 73 73 72 59 61 66 65 74 86 108 125 136 144 139 141 156 154 158 160 169 171 197 195 194 185 175 179 157 159 179 179 190 181 162 176 173 138 129 130 130
210 143 147 138 107 135 119 83 77 54 78 75 68 56 49 50 68 84 91 115 127 143 168 153 170 166 163 178 181 185 191 211 203 208 190 194 190 201 206 168 197 196 197 198 197 175 157 144 139
245 223 231 151 151 219 165 165 158 136 56 87 79 72 67 57 41 54 84 87 102 119 177 186 164 200 178 183 200 205 212 213 205 213 209 213 208 215 206 175 184 213 214 236 238 238 184 163 174
213 253 238 245 197 179 192 198 198 179 155 75 2 46 45 62 71 54 53 64 82 100 137 203 187 191 208 195 205 209 226 239 234 211 219 219 229 229 217 197 191 192 247 278 304 325 268 159 216
221 241 267 271 40 328 333 320 246 219 202 219 226 262 317 285 133 93 125 113 96 98 117 174 200 207 198 213 224 221 216 236 241 234 214 218 221 230 232 212 219 209 209 199 277 328 287 285 222
245 239 269 283 286 284 290 254 307 275 254 226 247 264 264 269 281 271 265 230 174 181 165 155 177 192 216 253 231 227 228 232 237 247 238 219 224 229 239 238 226 230 237 222 218 238 258 279 299
257 256 219 245 278 308 278 288 242 276 261 272 247 250 246 273 253 233 206 268 278 267 235 205 185 192 199 217 239 236 236 247 253 240 241 226 227 227 229 235 235 231 237 244 244 239 248 261 270
239 237 242 250 250 244 222 252 237 261 272 278 279 261 281 290 237 223 114 181 31 327 303 271 245 215 203 209 209 226 239 244 251 258 245 231 226 232 231 233 233 231 232 239 245 253 260 269 272
245 251 241 243 214 197 227 244 222 252 259 255 292 279 285 277 292 306 23 147 334 303 282 267 261 264 236 217 226 233 229 229 241 241 246 243 230 230 232 234 235 233 223 227 238 249 258 265 270
238 240 237 242 206 197 224 240 244 244 237 231 249 257 278 285 292 311 293 305 299 266 259 266 275 259 261 250 246 244 237 240 230 235 238 243 240 237 238 237 235 237 236 229 237 247 259 267 275
216 216 212 211 210 205 200 218 231 234 242 247 252 261 272 283 295 299 296 292 283 262 257 244 259 270 272 263 259 252 260 257 245 238 229 234 240 244 245 245 243 237 237 242 248 255 260 267 270
226 225 216 196 199 213 181 206 218 245 257 260 261 268 274 278 281 285 286 283 279 277 271 260 253 254 262 269 260 252 247 248 243 239 241 233 231 238 244 246 248 251 248 248 253 258 266 269 270
228 222 225 219 211 205 203 197 218 231 241 253 262 266 269 275 279 281 283 285 287 290 289 274 259 263 262 255 254 258 246 247 255 255 247 247 241 235 234 243 245 246 252 255 256 258 260 264 267
234 234 231 225 224 229 217 208 215 228 235 242 254 261 267 272 274 276 279 282 287 292 292 293 291 279 265 257 244 254 272 271 264 263 257 254 252 244 240 239 246 250 250 253 258 260 262 265 265